Miscellaneous Local Product
Issued by NWS Hastings, NE

Home | Current Version | Previous Version | Graphics & Text | Print | Product List | Glossary On
Versions: 1 2 3 4 5 6 7 8 9 10 11 12 13 14 15 16 17 18 19 20 21 22 23 24 25 26 27 28 29 30 31 32 33 34 35 36 37 38 39 40 41 42 43 44 45 46 47 48 49 50
000
AXUS43 KGID 262102
MISGRI

GID CWA HOURLY WEATHER ROUNDUP
NATIONAL WEATHER SERVICE HASTINGS NE
300 PM CST MON JAN 26 2015

NOTE: "FAIR" INDICATES FEW OR NO CLOUDS BELOW 12,000 FEET WITH NO
SIGNIFICANT WEATHER AND/OR OBSTRUCTIONS TO VISIBILITY.

...SOUTH CENTRAL NEBRASKA...

CITY           SKY/WX    TMP DP  RH WIND       PRES   REMARKS
GRAND ISLAND   SUNNY     62  34  35 NW17      29.99S
HASTINGS       SUNNY     64  31  28 NW22      30.00S
KEARNEY        SUNNY     66  32  28 NW18G24   30.00S
ORD            SUNNY     62  33  33 NW18G25   29.98S
YORK           SUNNY     63  30  29 N15G24    29.97S
AURORA         SUNNY     64  32  30 NW12G21   29.97S
LEXINGTON      SUNNY     69  31  25 NW21G31   30.01F
HOLDREGE       SUNNY     68  30  24 NW23      30.00F
HEBRON         SUNNY     65  23  20 N18       29.96S

...NEBRASKA PANHANDLE...

CITY           SKY/WX    TMP DP  RH WIND       PRES   REMARKS
CHADRON          N/A     64  34  32 NW15      30.06F
ALLIANCE       SUNNY     63  37  38 NW10      30.09F
SCOTTSBLUFF    SUNNY     65  38  36 W8        30.12F
SIDNEY         SUNNY     67  30  25 NW15      30.14F

...WESTERN AND NORTH CENTRAL NEBRASKA...

CITY           SKY/WX    TMP DP  RH WIND       PRES   REMARKS
VALENTINE      SUNNY     62  33  33 NW15      30.01S
AINSWORTH      SUNNY     60  33  36 NW15G22   30.01S
ONEILL         SUNNY     58  33  38 NW16      29.99F
BROKEN BOW     SUNNY     65  34  31 NW17G31   30.00S
IMPERIAL       SUNNY     68  28  22 N21G29    30.09F
NORTH PLATTE   SUNNY     68  28  22 NW22G33   30.05S
MCCOOK         SUNNY     72  28  19 NW20G28   30.05S

...EASTERN NEBRASKA...

CITY           SKY/WX    TMP DP  RH WIND       PRES   REMARKS
NORFOLK        SUNNY     58  32  37 NW16G26   29.95R
SO SIOUX CITY  SUNNY     54  38  54 NW18G26   29.92R
TEKAMAH        SUNNY     57  38  48 NW21G28   29.93R
COLUMBUS       SUNNY     59  32  36 NW17      29.98R
ALBION         SUNNY     60  31  33 NW14      29.98R
OMAHA EPPLEY   MOSUNNY   58  35  42 N18       29.92R
OFFUTT AFB     SUNNY     58  35  40 NW18G25   29.92R
MILLARD        SUNNY     58  35  41 NW16G22   29.92S
LINCOLN        SUNNY     62  32  32 NW16      29.96S
NEBRASKA CITY  SUNNY     60  26  27 N20G26    29.92S
BEATRICE       SUNNY     63  32  32 NW15      29.95F
FALLS CITY     SUNNY     62  32  32 N16G25    29.91S

...NORTHERN KANSAS...

CITY           SKY/WX    TMP DP  RH WIND       PRES   REMARKS
GOODLAND       SUNNY     68  30  24 NW17      30.13F
HILL CITY      SUNNY     71  31  22 NW21G26   30.04F
NORTON         CLEAR     70  21  16 NW24G30   30.02S
PHILLIPSBURG   SUNNY     73  30  20 NW18      30.01S
SMITH CENTER   SUNNY     66  32  28 NW14G20   30.01S
BELOIT         SUNNY     70  30  23 NW13G20   29.98S
HAYS           SUNNY     70  30  23 NW20      30.03F
RUSSELL        SUNNY     71  32  23 N23G30    30.00F
CONCORDIA      SUNNY     67  33  28 NW12      29.98R
SALINA         SUNNY     70  34  26 NW16      29.98S
TOPEKA         SUNNY     65  36  34 NW12G22   29.93S



USA.gov is the U.S. government's official web portal to all federal, state and local government web resources and services.